sat.trackr.live / text

‹ back to catalog

ASTRA 2E

NORAD 39285 · 2013-056A

PAYLOAD ACTIVE UNKNOWN

§ Identity

Operator
Country
SES
Launch date
2013-09-29
Launch site
TYMSC
Launch vehicle
Mass (kg)
RCS (m²)
7.80

Purposes: comms

External: N2YO · Heavens-Above · Gunter

§ Orbital elements

Epoch: 2026-05-25T03:52:46.481376Z

Period
1,436.08 min
Inclination
0.0722°
Eccentricity
0.0002610
Mean motion
1.00272847 rev/d
Perigee alt
35,775.3 km
Apogee alt
35,797.3 km
Semi-major
42,164.4 km
B*
0.0000e+0
RAAN
316.8226°
Arg perigee
111.7179°
Mean anomaly
260.9268°
Rev number
4,618

§ Raw data

ASTRA 2E1 39285U 13056A   26145.16164909  .00000148  00000+0  00000+0 0  99972 39285   0.0722 316.8226 0002610 111.7179 260.9268  1.00272847 46187

JSON: /api/v1/satellites/39285 · /tle

For live sub-satellite position, see the globe view (requires WebGL).

§ Visibility from observer

Set your observer location to see the next 7 days of passes ≥ 10°. The values pass through the URL so the page stays shareable.

No JS? Fill the form by hand. The geolocation button needs JavaScript.